TimeCST,TemperatureF,Dew PointF,Humidity,Sea Level PressureIn,VisibilityMPH,Wind Direction,Wind SpeedMPH,Gust SpeedMPH,PrecipitationIn,Events,Conditions,WindDirDegrees,DateUTC
12:15 AM,31.3,28.4,89,29.98,7.0,SE,3.5,-,N/A,,Clear,140,2013-03-03 06:15:00
12:35 AM,30.9,27.9,88,29.98,5.0,SSE,4.6,-,N/A,,Clear,150,2013-03-03 06:35:00
12:55 AM,30.7,27.9,89,29.97,5.0,SSE,3.5,-,N/A,,Clear,150,2013-03-03 06:55:00
1:15 AM,30.4,27.7,90,29.96,5.0,SSE,3.5,-,N/A,,Clear,150,2013-03-03 07:15:00
1:55 AM,30.4,27.7,90,29.95,5.0,SE,4.6,-,N/A,,Clear,140,2013-03-03 07:55:00
2:15 AM,30.2,27.7,90,29.94,5.0,ESE,3.5,-,N/A,,Clear,120,2013-03-03 08:15:00
2:35 AM,29.8,27.3,90,29.93,5.0,SSE,3.5,-,N/A,,Clear,150,2013-03-03 08:35:00
2:55 AM,30.2,27.9,91,29.92,5.0,SE,3.5,-,N/A,,Scattered Clouds,130,2013-03-03 08:55:00
3:15 AM,29.3,27.0,91,29.91,4.0,SE,3.5,-,N/A,,Clear,140,2013-03-03 09:15:00
3:35 AM,28.2,26.1,92,29.90,3.0,SE,4.6,-,N/A,,Clear,130,2013-03-03 09:35:00
3:55 AM,29.3,27.3,92,29.90,4.0,ESE,6.9,-,N/A,,Clear,120,2013-03-03 09:55:00
4:15 AM,28.4,26.2,92,29.89,3.0,SE,5.8,-,N/A,,Clear,130,2013-03-03 10:15:00
4:35 AM,28.2,26.2,92,29.89,2.5,SE,4.6,-,N/A,,Clear,140,2013-03-03 10:35:00
4:55 AM,28.4,26.6,93,29.89,2.5,ESE,4.6,-,N/A,,Clear,120,2013-03-03 10:55:00
5:15 AM,27.9,26.1,93,29.88,2.5,SSE,3.5,-,N/A,,Clear,150,2013-03-03 11:15:00
5:35 AM,28.2,26.4,93,29.88,2.5,ESE,3.5,-,N/A,,Clear,110,2013-03-03 11:35:00
5:55 AM,28.4,26.6,93,29.88,2.5,ESE,4.6,-,N/A,,Clear,120,2013-03-03 11:55:00
6:15 AM,27.5,25.7,93,29.88,2.5,ESE,3.5,-,N/A,,Clear,120,2013-03-03 12:15:00
6:35 AM,28.2,26.4,93,29.87,2.5,ESE,3.5,-,N/A,,Clear,110,2013-03-03 12:35:00
6:55 AM,28.0,26.2,93,29.88,2.5,ESE,4.6,-,N/A,,Clear,120,2013-03-03 12:55:00
7:15 AM,28.2,26.4,93,29.87,2.0,ESE,4.6,-,N/A,,Mostly Cloudy,120,2013-03-03 13:15:00
7:35 AM,28.4,26.6,93,29.86,1.5,SE,4.6,-,N/A,,Overcast,130,2013-03-03 13:35:00
7:55 AM,28.9,27.1,93,29.86,2.0,SE,4.6,-,N/A,,Overcast,140,2013-03-03 13:55:00
8:15 AM,29.3,27.5,93,29.86,2.5,SE,6.9,-,N/A,,Overcast,140,2013-03-03 14:15:00
8:35 AM,29.3,27.5,93,29.86,3.0,SE,5.8,-,N/A,,Overcast,130,2013-03-03 14:35:00
8:55 AM,30.2,28.0,92,29.85,4.0,SE,5.8,-,N/A,,Scattered Clouds,130,2013-03-03 14:55:00
9:15 AM,30.9,28.4,90,29.84,4.0,SE,9.2,-,N/A,,Scattered Clouds,130,2013-03-03 15:15:00
9:35 AM,32.0,29.1,89,29.83,4.0,SE,6.9,-,N/A,,Scattered Clouds,140,2013-03-03 15:35:00
9:55 AM,32.5,29.8,90,29.83,5.0,SE,6.9,-,N/A,,Scattered Clouds,130,2013-03-03 15:55:00
10:15 AM,33.3,30.0,88,29.82,5.0,SE,6.9,-,N/A,,Clear,130,2013-03-03 16:15:00
10:35 AM,34.2,30.4,86,29.82,7.0,ESE,9.2,-,N/A,,Clear,120,2013-03-03 16:35:00
10:55 AM,35.2,30.9,84,29.82,7.0,SE,6.9,-,N/A,,Clear,130,2013-03-03 16:55:00
11:15 AM,36.3,31.3,82,29.80,7.0,ESE,10.4,-,N/A,,Clear,120,2013-03-03 17:15:00
11:35 AM,37.4,31.8,80,29.80,10.0,SE,10.4,-,N/A,,Clear,130,2013-03-03 17:35:00
11:55 AM,38.1,32.0,79,29.79,7.0,SE,10.4,-,N/A,,Scattered Clouds,130,2013-03-03 17:55:00
12:15 PM,39.2,32.2,76,29.79,7.0,SSE,11.5,-,N/A,,Scattered Clouds,150,2013-03-03 18:15:00
12:35 PM,38.8,32.0,76,29.78,10.0,SE,9.2,-,N/A,,Scattered Clouds,140,2013-03-03 18:35:00
12:55 PM,39.4,32.4,76,29.77,10.0,SE,13.8,-,N/A,,Scattered Clouds,140,2013-03-03 18:55:00
1:15 PM,39.9,32.9,76,29.76,10.0,SE,11.5,-,N/A,,Scattered Clouds,140,2013-03-03 19:15:00
1:35 PM,40.5,33.3,75,29.73,10.0,SE,11.5,-,N/A,,Mostly Cloudy,130,2013-03-03 19:35:00
1:55 PM,41.0,33.6,75,29.72,10.0,SE,9.2,-,N/A,,Mostly Cloudy,140,2013-03-03 19:55:00
2:15 PM,41.7,34.2,75,29.71,10.0,SE,10.4,-,N/A,,Mostly Cloudy,130,2013-03-03 20:15:00
2:35 PM,42.4,34.9,75,29.69,10.0,SE,13.8,-,N/A,,Mostly Cloudy,130,2013-03-03 20:35:00
2:55 PM,42.8,34.9,74,29.69,10.0,SE,16.1,-,N/A,,Mostly Cloudy,130,2013-03-03 20:55:00
3:15 PM,42.3,34.7,75,29.69,10.0,SE,12.7,-,N/A,,Overcast,130,2013-03-03 21:15:00
3:35 PM,42.3,34.7,75,29.69,10.0,SE,11.5,-,N/A,,Overcast,140,2013-03-03 21:35:00
3:55 PM,42.3,34.9,75,29.67,10.0,SE,13.8,-,N/A,,Overcast,130,2013-03-03 21:55:00
4:15 PM,42.4,34.7,74,29.67,10.0,ESE,9.2,-,N/A,,Overcast,120,2013-03-03 22:15:00
4:35 PM,41.9,34.2,74,29.66,10.0,ESE,13.8,-,N/A,,Overcast,120,2013-03-03 22:35:00
4:55 PM,41.4,34.0,75,29.67,10.0,SE,12.7,-,N/A,,Overcast,130,2013-03-03 22:55:00
5:15 PM,40.6,33.1,74,29.67,10.0,SE,12.7,-,N/A,,Overcast,140,2013-03-03 23:15:00
5:35 PM,40.1,32.4,74,29.67,10.0,SE,15.0,-,N/A,,Scattered Clouds,140,2013-03-03 23:35:00
5:55 PM,39.2,32.4,76,29.66,7.0,SE,13.8,-,N/A,,Clear,140,2013-03-03 23:55:00
6:35 PM,38.1,32.0,79,29.66,7.0,SE,15.0,-,N/A,,Clear,140,2013-03-04 00:35:00
6:55 PM,37.4,32.0,81,29.67,7.0,SE,13.8,-,N/A,,Scattered Clouds,140,2013-03-04 00:55:00
7:15 PM,37.4,32.0,81,29.67,7.0,SE,15.0,-,N/A,,Scattered Clouds,140,2013-03-04 01:15:00
7:35 PM,37.0,32.0,82,29.68,7.0,SE,12.7,17.3,N/A,,Clear,140,2013-03-04 01:35:00
7:55 PM,36.7,32.0,83,29.67,7.0,SE,11.5,-,N/A,,Clear,140,2013-03-04 01:55:00
8:15 PM,36.5,31.8,83,29.67,7.0,SE,13.8,-,N/A,,Clear,140,2013-03-04 02:15:00
8:35 PM,36.5,31.8,83,29.66,7.0,SE,11.5,-,N/A,,Clear,130,2013-03-04 02:35:00
8:55 PM,36.1,31.8,84,29.65,7.0,SE,15.0,-,N/A,,Clear,130,2013-03-04 02:55:00
9:15 PM,35.6,31.6,85,29.64,7.0,SE,12.7,18.4,N/A,,Clear,140,2013-03-04 03:15:00
9:35 PM,35.6,31.5,85,29.64,5.0,SE,13.8,-,N/A,,Haze,140,2013-03-04 03:35:00
9:55 PM,35.2,31.5,86,29.63,5.0,SE,12.7,-,N/A,,Clear,140,2013-03-04 03:55:00
10:15 PM,35.2,31.5,86,29.63,5.0,SE,12.7,-,N/A,,Clear,140,2013-03-04 04:15:00
10:35 PM,35.4,31.5,85,29.63,5.0,SE,10.4,-,N/A,,Clear,140,2013-03-04 04:35:00
10:55 PM,35.1,31.5,87,29.63,5.0,SSE,11.5,-,N/A,,Clear,150,2013-03-04 04:55:00
11:15 PM,35.1,31.3,86,29.63,7.0,SSE,11.5,-,N/A,,Clear,150,2013-03-04 05:15:00
11:35 PM,35.4,31.1,84,29.62,7.0,SSE,12.7,-,N/A,,Mostly Cloudy,150,2013-03-04 05:35:00
11:55 PM,35.1,30.9,85,29.63,7.0,SSE,13.8,-,N/A,,Scattered Clouds,160,2013-03-04 05:55:00